Greeley, CO

2:10 AM MDT on October 17, 2017 (GMT -0600)
Greeley-Weld County

Weather History for KGXY - November, 2012

Change the Weather History Date:

Friday, November 30, 2012

  Actual Average Record
Temperature  
Mean Temperature 40 °F -  
Max Temperature 55 °F - 64 °F (1998)
Min Temperature 24 °F - -18 °F (2006)
Degree Days  
Heating Degree Days 26    
Month to date heating degree days  
Moisture  
Dew Point 24 °F    
Average Humidity 62    
Maximum Humidity 86    
Minimum Humidity 31    
Precipitation  
Precipitation 0.00 in - 0.34 in (1986)
Sea Level Pressure  
Sea Level Pressure 29.96 in    
Wind  
Wind Speed 5 mph (NW)    
Max Wind Speed 12 mph    
Max Gust Speed -    
Visibility 10 miles    
Events      
T = Trace of Precipitation, MM = Missing Value Source: NWS Daily Summary

Daily Weather History Graph

Daily Weather History Graph

Search for Another Location

Airport or City:

Trip Planner

Search our weather history database for the weather conditions in past years. The results will help you decide how hot, cold, wet, or windy it might be!

Date:

Astronomy

Nov. 30, 2012 Rise Set
Actual Time 7:01 AM MST 4:32 PM MST
Civil Twilight 6:31 AM MST 5:02 PM MST
Nautical Twilight 5:57 AM MST 5:36 PM MST
Astronomical Twilight 5:25 AM MST 6:09 PM MST
Moon 6:29 PM MST (11/30) 8:35 AM MST (11/30)
Length of Visible Light 10h 31m
Length of Day
9h 30m
Waning Gibbous, 96% of the Moon is Illuminated
Nov 30
Waning Gibbous
Dec 6
Last Quarter
Dec 13
New
Dec 19
First Quarter
Dec 28
Full

Hourly Weather History & Observations

Time (MST) Temp. Windchill Dew Point Humidity Pressure Visibility Wind Dir Wind Speed Gust Speed Precip Events Conditions
12:15 AM 24.8 °F 16.9 °F 17.6 °F 74% 30.08 in 10.0 mi NW 6.9 mph - N/A   Clear
12:35 AM 24.8 °F 16.9 °F 19.4 °F 80% 30.07 in 10.0 mi NW 6.9 mph - N/A   Clear
12:55 AM 24.8 °F 15.3 °F 19.4 °F 80% 30.07 in 10.0 mi NW 9.2 mph - N/A   Clear
1:15 AM 26.6 °F 18.2 °F 19.4 °F 74% 30.07 in 10.0 mi WNW 8.1 mph - N/A   Clear
1:55 AM 24.8 °F 16.9 °F 19.4 °F 80% 30.08 in 10.0 mi WNW 6.9 mph - N/A   Clear
2:15 AM 26.6 °F 20.0 °F 19.4 °F 74% 30.08 in 10.0 mi NW 5.8 mph - N/A   Clear
2:35 AM 26.6 °F 21.2 °F 19.4 °F 74% 30.08 in 10.0 mi NW 4.6 mph - N/A   Clear
2:55 AM 26.6 °F 20.0 °F 19.4 °F 74% 30.08 in 10.0 mi NW 5.8 mph - N/A   Clear
3:15 AM 26.6 °F 20.0 °F 19.4 °F 74% 30.07 in 10.0 mi WNW 5.8 mph - N/A   Clear
4:35 AM 26.6 °F 22.6 °F 21.2 °F 80% 30.05 in 10.0 mi WNW 3.5 mph - N/A   Clear
4:55 AM 26.6 °F 20.0 °F 21.2 °F 80% 30.04 in 10.0 mi South 5.8 mph - N/A   Clear
5:15 AM 28.4 °F 24.6 °F 21.2 °F 74% 30.04 in 10.0 mi South 3.5 mph - N/A   Clear
5:35 AM 28.4 °F 24.6 °F 21.2 °F 74% 30.05 in 8.0 mi NNE 3.5 mph - N/A   Clear
5:55 AM 26.6 °F - 21.2 °F 80% 30.05 in 10.0 mi Calm Calm - N/A   Clear
6:15 AM 26.6 °F 22.6 °F 21.2 °F 80% 30.04 in 10.0 mi SSE 3.5 mph - N/A   Clear
6:35 AM 26.6 °F 20.0 °F 23.0 °F 86% 30.04 in 10.0 mi ENE 5.8 mph - N/A   Clear
6:55 AM 26.6 °F - 23.0 °F 86% 30.04 in 10.0 mi Calm Calm - N/A   Clear
7:15 AM 26.6 °F 18.2 °F 21.2 °F 80% 30.05 in 10.0 mi WSW 8.1 mph - N/A   Clear
7:35 AM 28.4 °F - 24.8 °F 86% 30.05 in 10.0 mi Calm Calm - N/A   Clear
7:55 AM 28.4 °F 24.6 °F 24.8 °F 86% 30.05 in 9.0 mi SW 3.5 mph - N/A   Clear
8:15 AM 30.2 °F 23.4 °F 24.8 °F 80% 30.06 in 10.0 mi NNE 6.9 mph - N/A   Clear
8:35 AM 33.8 °F 30.8 °F 24.8 °F 70% 30.04 in 10.0 mi WSW 3.5 mph - N/A   Clear
8:55 AM 37.4 °F 33.8 °F 28.4 °F 70% 30.05 in 10.0 mi WNW 4.6 mph - N/A   Clear
9:15 AM 39.2 °F 37.0 °F 28.4 °F 65% 30.04 in 10.0 mi NW 3.5 mph - N/A   Clear
9:35 AM 41.0 °F - 28.4 °F 61% 30.03 in 10.0 mi Calm Calm - N/A   Clear
9:55 AM 42.8 °F 41.1 °F 28.4 °F 57% 30.03 in 10.0 mi North 3.5 mph - N/A   Clear
10:15 AM 44.6 °F 42.2 °F 26.6 °F 49% 30.03 in 10.0 mi WSW 4.6 mph - N/A   Clear
10:35 AM 46.4 °F - 26.6 °F 46% 30.02 in 10.0 mi Calm Calm - N/A   Clear
11:15 AM 48.2 °F - 28.4 °F 46% 29.99 in 10.0 mi East 3.5 mph - N/A   Clear
11:35 AM 51.8 °F - 28.4 °F 41% 29.98 in 10.0 mi SE 4.6 mph - N/A   Clear
11:55 AM 51.8 °F - 30.2 °F 44% 29.95 in 10.0 mi East 4.6 mph - N/A   Clear
12:15 PM 51.8 °F - 30.2 °F 44% 29.94 in 10.0 mi East 6.9 mph - N/A   Clear
12:35 PM 53.6 °F - 28.4 °F 38% 29.93 in 10.0 mi SE 5.8 mph - N/A   Clear
1:15 PM 55.4 °F - 28.4 °F 36% 29.90 in 10.0 mi SSE 5.8 mph - N/A   Clear
1:35 PM 55.4 °F - 26.6 °F 33% 29.90 in 10.0 mi SSE 5.8 mph - N/A   Clear
1:55 PM 55.4 °F - 26.6 °F 33% 29.89 in 10.0 mi SE 4.6 mph - N/A   Clear
2:15 PM 55.4 °F - 24.8 °F 31% 29.88 in 10.0 mi SSE 3.5 mph - N/A   Clear
2:35 PM 55.4 °F - 24.8 °F 31% 29.88 in 10.0 mi Calm Calm - N/A   Clear
2:55 PM 55.4 °F - 24.8 °F 31% 29.88 in 10.0 mi Calm Calm - N/A   Clear
3:15 PM 55.4 °F - 26.6 °F 33% 29.88 in 10.0 mi Calm Calm - N/A   Clear
3:35 PM 55.4 °F - 26.6 °F 33% 29.88 in 8.0 mi Calm Calm - N/A   Clear
3:55 PM 53.6 °F - 26.6 °F 35% 29.87 in 10.0 mi ENE 3.5 mph - N/A   Clear
4:35 PM 46.4 °F 45.2 °F 26.6 °F 46% 29.86 in 9.0 mi East 3.5 mph - N/A   Clear
5:15 PM 39.2 °F - 24.8 °F 56% 29.86 in 10.0 mi Calm Calm - N/A   Clear
5:35 PM 39.2 °F - 24.8 °F 56% 29.85 in 9.0 mi Calm Calm - N/A   Clear
6:15 PM 35.6 °F 27.5 °F 24.8 °F 65% 29.86 in 10.0 mi North 11.5 mph - N/A   Clear
6:35 PM 35.6 °F 30.7 °F 23.0 °F 60% 29.86 in 10.0 mi North 5.8 mph - N/A   Clear
6:55 PM 35.6 °F 31.7 °F 23.0 °F 60% 29.85 in 10.0 mi NNE 4.6 mph - N/A   Clear
7:15 PM 35.6 °F - 21.2 °F 56% 29.85 in 10.0 mi Calm Calm - N/A   Clear
7:35 PM 33.8 °F 30.8 °F 21.2 °F 60% 29.85 in 10.0 mi NNE 3.5 mph - N/A   Clear
8:15 PM 33.8 °F 27.7 °F 21.2 °F 60% 29.85 in 10.0 mi NW 6.9 mph - N/A   Clear
8:35 PM 33.8 °F 27.7 °F 23.0 °F 65% 29.84 in 10.0 mi NW 6.9 mph - N/A   Clear
9:15 PM 33.8 °F 26.4 °F 23.0 °F 65% 29.84 in 10.0 mi NW 9.2 mph - N/A   Clear
9:35 PM 32.0 °F 24.8 °F 21.2 °F 64% 29.84 in 10.0 mi NW 8.1 mph - N/A   Clear
9:55 PM 33.8 °F 29.6 °F 21.2 °F 60% 29.84 in 10.0 mi NW 4.6 mph - N/A   Clear
10:15 PM 30.2 °F 24.3 °F 21.2 °F 69% 29.84 in 10.0 mi WNW 5.8 mph - N/A   Clear
10:35 PM 32.0 °F 26.4 °F 21.2 °F 64% 29.84 in 10.0 mi WNW 5.8 mph - N/A   Clear
11:15 PM 30.2 °F 22.6 °F 19.4 °F 64% 29.85 in 10.0 mi NNW 8.1 mph - N/A   Clear
11:35 PM 28.4 °F 20.4 °F 21.2 °F 74% 29.86 in 10.0 mi North 8.1 mph - N/A   Clear
11:55 PM 28.4 °F 24.6 °F 21.2 °F 74% 29.85 in 10.0 mi NNW 3.5 mph - N/A   Clear